sat.trackr.live / text

‹ back to catalog

UNKNOWN

NORAD 85100

UNKNOWN UNKNOWN UNKNOWN

§ Identity

Operator
Country
Launch date
Launch site
Launch vehicle
Mass (kg)
RCS (m²)

External: N2YO · Heavens-Above

§ Orbital elements

Epoch: 2026-05-19T16:15:11.960064Z

Period
99.94 min
Inclination
74.0448°
Eccentricity
0.0011717
Mean motion
14.40842941 rev/d
Perigee alt
747.4 km
Apogee alt
764.1 km
Semi-major
7,133.9 km
B*
6.3024e-5
RAAN
290.7622°
Arg perigee
122.0910°
Mean anomaly
253.1451°
Rev number
65,609

§ Raw data

UNKNOWN1 85100U          26139.67722176  .00000176  00000+0  63024-4 0  99952 85100  74.0448 290.7622 0011717 122.0910 253.1451 14.40842941656097

JSON: /api/v1/satellites/85100 · /tle

For live sub-satellite position, see the globe view (requires WebGL).

§ Visibility from observer

Set your observer location to see the next 7 days of passes ≥ 10°. The values pass through the URL so the page stays shareable.

No JS? Fill the form by hand. The geolocation button needs JavaScript.